Logan, UT

10:33 AM MST on November 18, 2019 (GMT -0700)
Logan-Cache

Weather History for KLGU - August, 2019

Change the Weather History Date:

Thursday, August 15, 2019

  Actual Average Record
Temperature  
Mean Temperature 69 °F -  
Max Temperature 91 °F 86 °F 98 °F (1962)
Min Temperature 48 °F 52 °F 41 °F (1985)
Cooling Degree Days 4    
Growing Degree Days 19 (Base 50)    
Moisture  
Dew Point 42 °F    
Average Humidity 41    
Maximum Humidity 80    
Minimum Humidity 14    
Precipitation  
Precipitation 0.00 in - - ()
Sea Level Pressure  
Sea Level Pressure 29.95 in    
Wind  
Wind Speed 4 mph (South)    
Max Wind Speed 10 mph    
Max Gust Speed -    
Visibility 10 miles    
Events      
Averages and records for this station are not official NWS values.
T = Trace of Precipitation, MM = Missing Value Source: NWS Daily Summary

Daily Weather History Graph

Daily Weather History Graph

Search for Another Location

Airport or City:

Astronomy

Aug. 15, 2019 Rise Set
Actual Time 6:35 AM MDT 8:27 PM MDT
Civil Twilight 6:05 AM MDT 8:57 PM MDT
Nautical Twilight 5:28 AM MDT 9:33 PM MDT
Astronomical Twilight 4:49 AM MDT 10:13 PM MDT
Moon 8:58 PM MDT (8/15) 6:32 AM MDT (8/15)
Length of Visible Light 14h 51m
Length of Day
13h 51m
Full, 100% of the Moon is Illuminated
Aug 15
Full
Aug 23
Last Quarter
Aug 30
New
Sep 5
First Quarter
Sep 13
Full

Hourly Weather History & Observations

Time (MDT) Temp. Dew Point Humidity Pressure Visibility Wind Dir Wind Speed Gust Speed Precip Events Conditions
12:51 AM 63.0 °F 46.0 °F 54% 29.99 in 10.0 mi East 4.6 mph - N/A   Clear
1:51 AM 57.0 °F 46.0 °F 67% 29.99 in 10.0 mi Calm Calm - N/A   Clear
2:51 AM 57.0 °F 44.1 °F 62% 29.98 in 10.0 mi NE 3.5 mph - N/A   Clear
3:51 AM 57.0 °F 44.1 °F 62% 29.99 in 10.0 mi NE 3.5 mph - N/A   Clear
4:51 AM 52.0 °F 43.0 °F 71% 30.00 in 10.0 mi WNW 3.5 mph - N/A   Clear
5:51 AM 55.0 °F 44.1 °F 67% 30.01 in 10.0 mi East 3.5 mph - N/A   Clear
6:51 AM 48.9 °F 43.0 °F 80% 30.04 in 10.0 mi North 6.9 mph - N/A   Clear
7:51 AM 54.0 °F 45.0 °F 72% 30.05 in 10.0 mi Calm Calm - N/A   Clear
8:51 AM 64.0 °F 43.0 °F 46% 30.04 in 10.0 mi SSW 3.5 mph - N/A   Clear
9:51 AM 69.1 °F 42.1 °F 38% 30.04 in 10.0 mi Calm Calm - N/A   Clear
10:51 AM 73.0 °F 46.0 °F 38% 30.03 in 10.0 mi Calm Calm - N/A   Clear
11:51 AM 79.0 °F 45.0 °F 30% 30.01 in 10.0 mi Calm Calm - N/A   Clear
12:51 PM 84.0 °F 36.0 °F 18% 29.98 in 10.0 mi Calm Calm - N/A   Clear
1:51 PM 89.1 °F 36.0 °F 15% 29.95 in 10.0 mi Variable 4.6 mph - N/A   Clear
2:51 PM 90.0 °F 36.0 °F 15% 29.92 in 10.0 mi South 6.9 mph - N/A   Clear
3:51 PM 89.1 °F 36.0 °F 15% 29.90 in 10.0 mi Variable 3.5 mph - N/A   Clear
4:51 PM 90.0 °F 37.0 °F 15% 29.88 in 10.0 mi SSW 8.1 mph - N/A   Clear
5:51 PM 90.0 °F 35.1 °F 14% 29.85 in 10.0 mi SSW 10.4 mph - N/A   Clear
6:51 PM 90.0 °F 34.0 °F 14% 29.85 in 10.0 mi South 10.4 mph - N/A   Clear
7:51 PM 87.1 °F 35.1 °F 16% 29.83 in 10.0 mi SSW 4.6 mph - N/A   Clear
8:51 PM 69.1 °F 48.9 °F 49% 29.87 in 10.0 mi NNE 9.2 mph - N/A   Clear
9:51 PM 71.1 °F 43.0 °F 36% 29.87 in 10.0 mi North 5.8 mph - N/A   Clear
10:51 PM 71.1 °F 43.0 °F 36% 29.88 in 10.0 mi SSW 3.5 mph - N/A   Clear
11:51 PM 68.0 °F 45.0 °F 43% 29.87 in 10.0 mi South 4.6 mph - N/A   Clear